sat.trackr.live / text

‹ back to catalog

STARLINK-37635

NORAD 69029 · 2026-101E

PAYLOAD ACTIVE UNKNOWN

§ Identity

Operator
Country
US
Launch date
2026-05-06
Launch site
AFWTR
Launch vehicle
Mass (kg)
RCS (m²)

Purposes: comms

External: N2YO · Heavens-Above · Gunter

§ Orbital elements

Epoch: 2026-05-25T03:33:36.683136Z

Period
91.41 min
Inclination
97.2848°
Eccentricity
0.0001206
Mean motion
15.75240606 rev/d
Perigee alt
343.1 km
Apogee alt
344.8 km
Semi-major
6,722.1 km
B*
1.2006e-3
RAAN
359.8978°
Arg perigee
81.0007°
Mean anomaly
279.1394°
Rev number
301

§ Raw data

STARLINK-376351 69029U 26101E   26145.14834124  .00183242  00000+0  12006-2 0  99912 69029  97.2848 359.8978 0001206  81.0007 279.1394 15.75240606  3015

JSON: /api/v1/satellites/69029 · /tle

For live sub-satellite position, see the globe view (requires WebGL).

§ Visibility from observer

Set your observer location to see the next 7 days of passes ≥ 10°. The values pass through the URL so the page stays shareable.

No JS? Fill the form by hand. The geolocation button needs JavaScript.